[[{"header":{"parameterUnit":"m.s-1","parameterCategory":1,"la1":30.2992,"la2":30.254,"lo1":-89.0895,"lo2":-89.0443,"dy":0.0025,"dx":0.0025,"nx":19,"ny":19,"refTime":"2026-03-20T21:00:00:Z","depth":0,"parameterNumber":2,"parameterNumberName":"U-component_of_WINDS"},"data":[0,0,0,2.6776,2.6778,2.6848,2.6849,2.6941,2.6942,0,0,0,0,0,0,0,0,0,0,0,2.6754,2.6754,2.6776,2.6778,2.6848,2.6849,2.6941,2.6942,0,0,0,0,0,0,0,0,0,0,0,2.6753,2.6754,2.6755,2.6778,2.6848,2.6849,2.6941,2.6887,0,0,0,0,0,0,0,0,0,0,2.6819,2.6795,2.6754,2.6755,2.6778,2.6848,2.6849,2.6885,2.6891,2.6909,0,2.6923,0,2.6934,2.6948,2.6948,0,0,0,2.678,2.6791,2.6811,2.6755,2.6779,2.6848,2.6817,2.6888,2.6895,2.6917,2.6924,2.6927,2.6935,2.6949,2.6949,2.7043,2.7044,0,0,2.6776,2.6766,2.6806,2.6815,2.6801,2.6815,2.6819,2.6892,2.69,2.6924,2.693,2.6937,2.6949,2.695,2.7043,2.7043,0,0,0,2.6763,2.6763,2.6782,2.6811,2.6824,2.6817,2.6822,2.6897,2.6904,2.6931,2.6938,2.695,2.6951,2.7043,2.7043,2.705,0,0,0,2.6761,2.6756,2.678,2.6775,2.6822,2.6861,2.6825,2.6899,2.6907,2.6937,2.695,2.6952,2.7042,2.7043,2.7049,2.7055,0,0,0,2.675,2.6755,2.6764,2.6774,2.6804,2.686,2.6871,2.6901,2.6911,2.6948,2.6952,2.7042,2.7043,2.7048,2.7054,2.7077,0,0,0,2.6735,2.677,2.6764,2.6806,2.6803,2.6863,2.687,2.6916,2.6948,2.695,2.7042,2.7043,2.7048,2.7053,2.7076,2.7094,2.7101,0,0,2.6774,2.6774,2.68,2.6797,2.6854,2.6853,2.6913,2.6953,2.6967,2.7018,2.702,2.7049,2.7054,2.7077,2.7143,2.7148,0,0,0,2.6809,2.6827,2.6845,2.6874,2.6904,2.6932,2.6963,2.6979,2.7022,2.699,2.7065,2.7068,2.7082,2.7091,2.7095,2.7108,2.7047,2.7047,2.7047,2.6849,2.6863,2.6907,2.6931,2.696,2.6992,2.7018,2.7045,2.7052,2.7069,2.7084,2.7122,2.7133,2.7136,2.7149,2.7096,2.7096,2.7096,2.7096,2.6907,2.6935,2.6943,2.6988,2.7005,2.7044,2.7078,2.7082,2.7123,2.7112,2.7125,2.7112,2.7141,2.7154,2.7096,2.7096,2.7096,2.7096,2.7096,2.6934,2.695,2.6967,2.7012,2.7046,2.707,2.7108,2.7122,2.7136,2.7149,2.7167,2.7167,2.7169,2.7157,2.7157,2.7157,2.7157,2.7157,2.7158,2.6955,2.6974,2.7004,2.704,2.7061,2.7092,2.7127,2.7149,2.7178,2.7186,2.7186,2.7192,2.7141,2.7128,2.716,2.7159,2.7159,2.7159,2.7159,2.7007,2.6998,2.7043,2.7064,2.7109,2.7143,2.716,2.7205,2.7227,2.7245,2.7249,2.7209,2.7212,2.7208,2.7197,2.7245,2.7245,2.7245,2.7245,2.703,2.7032,2.7082,2.7116,2.7151,2.7172,2.7225,2.7254,2.7282,2.7297,2.7292,2.7279,2.7275,2.728,2.7275,2.7265,2.7329,2.7329,2.7329,2.7063,2.707,2.711,2.7136,2.7173,2.7205,2.7255,2.7296,2.7327,2.7333,2.7308,2.7305,2.7284,2.7277,2.7281,2.7273,2.7255,0,0]},{"header":{"parameterUnit":"m.s-1","parameterCategory":1,"la1":30.2992,"la2":30.254,"lo1":-89.0895,"lo2":-89.0443,"dy":0.0025,"dx":0.0025,"nx":19,"ny":19,"refTime":"2026-03-20T21:00:00:Z","depth":0,"parameterNumber":3,"parameterNumberName":"V-component_of_WINDS"},"data":[0,0,0,2.6322,2.6323,2.6359,2.6359,2.6397,2.6398,0,0,0,0,0,0,0,0,0,0,0,2.6308,2.6308,2.6322,2.6323,2.6359,2.6359,2.6397,2.6398,0,0,0,0,0,0,0,0,0,0,0,2.6308,2.6308,2.6308,2.6323,2.6359,2.6359,2.6397,2.6372,0,0,0,0,0,0,0,0,0,0,2.6338,2.6323,2.6308,2.6308,2.6323,2.6359,2.6359,2.6371,2.6374,2.6378,0,2.6382,0,2.639,2.64,2.64,0,0,0,2.6325,2.632,2.6333,2.6308,2.6323,2.6359,2.6343,2.6373,2.6376,2.6381,2.6383,2.6384,2.6391,2.64,2.64,2.6418,2.6418,0,0,2.6323,2.6312,2.6331,2.6335,2.6331,2.6342,2.6344,2.6375,2.6375,2.6383,2.6385,2.6392,2.64,2.6401,2.6418,2.6418,0,0,0,2.6316,2.6311,2.6323,2.6333,2.6341,2.6343,2.6346,2.6374,2.6379,2.6386,2.6392,2.64,2.6401,2.6418,2.6418,2.6408,0,0,0,2.6314,2.6307,2.6322,2.6316,2.634,2.6358,2.6344,2.6376,2.638,2.6392,2.64,2.6401,2.6418,2.6418,2.6408,2.6404,0,0,0,2.6307,2.6306,2.631,2.6316,2.6331,2.6358,2.6365,2.6378,2.6384,2.64,2.6401,2.6419,2.6418,2.6408,2.6405,2.6405,0,0,0,2.6295,2.63,2.631,2.6318,2.6331,2.6351,2.6365,2.638,2.6393,2.6401,2.6418,2.6418,2.6409,2.6405,2.6406,2.6404,2.6402,0,0,2.6296,2.63,2.6306,2.6315,2.6332,2.6347,2.6361,2.6382,2.6392,2.6408,2.6409,2.6408,2.6405,2.6405,2.6398,2.6396,0,0,0,2.6303,2.6306,2.6313,2.6325,2.6341,2.6354,2.6374,2.6381,2.6396,2.6399,2.6409,2.6407,2.6408,2.6407,2.6406,2.6407,2.6418,2.6418,2.6418,2.629,2.6303,2.6312,2.6329,2.634,2.636,2.6369,2.6382,2.6392,2.6394,2.6399,2.6393,2.6392,2.6391,2.6392,2.64,2.64,2.64,2.64,2.6292,2.6299,2.6312,2.6326,2.6338,2.635,2.6368,2.6374,2.6385,2.6391,2.6392,2.6397,2.639,2.6391,2.6399,2.6399,2.6399,2.6399,2.6399,2.6285,2.629,2.6299,2.6316,2.6327,2.6344,2.6353,2.6365,2.6376,2.6377,2.6382,2.6383,2.6383,2.6379,2.6379,2.6379,2.6379,2.6379,2.6379,2.6273,2.6284,2.6291,2.6308,2.6316,2.6328,2.6346,2.6353,2.6364,2.6372,2.6372,2.6381,2.6387,2.6388,2.6378,2.6378,2.6378,2.6378,2.6378,2.627,2.6272,2.6284,2.6292,2.6311,2.632,2.6334,2.6348,2.6356,2.636,2.6369,2.6372,2.6376,2.6377,2.6378,2.6367,2.6367,2.6367,2.6367,2.6264,2.6267,2.6281,2.6292,2.6305,2.6318,2.6329,2.6342,2.6356,2.6361,2.6364,2.6366,2.6366,2.6371,2.6372,2.6373,2.636,2.636,2.636,2.6262,2.6267,2.6275,2.6289,2.6304,2.6316,2.6326,2.6337,2.6353,2.636,2.6364,2.6365,2.6368,2.6369,2.6377,2.6378,2.638,0,0]}]]